When you browse on this site, cookies collect data to enhance your experience and personalize the content and advertising you see.
Visit our Privacy Policy to learn more. By continuing to use the site, you agree to this use of cookies and data.

Hourly Weather Alekseevka

Today, 5 July, Sunday

Time Temperature Precipitation Wind Pressure Humidity
00:00 +18°C° 0 mm 1 mps 746 mmHg 91%
01:00 +18°C° 0 mm 1 mps 746 mmHg 92%
02:00 +16°C° 0 mm 1 mps 746 mmHg 94%
03:00 +18°C° 0 mm 1 mps 746 mmHg 93%
04:00 +18°C° 0 mm 1 mps 746 mmHg 92%
05:00 +18°C° 0 mm 1 mps 746 mmHg 92%
06:00 +19°C° 0 mm 1 mps 746 mmHg 85%
07:00 +20°C° 0 mm 2 mps 746 mmHg 79%
08:00 +23°C° 0 mm 2 mps 746 mmHg 73%
09:00 +24°C° 0 mm 2 mps 745 mmHg 68%
10:00 +25°C° 0 mm 3 mps 745 mmHg 64%
11:00 +26°C° 0 mm 3 mps 745 mmHg 60%
12:00 +26°C° 0 mm 3 mps 745 mmHg 59%
13:00 +26°C° 0 mm 3 mps 745 mmHg 58%
14:00 +27°C° 0 mm 4 mps 745 mmHg 57%
15:00 +26°C° 0.1 mm 4 mps 745 mmHg 61%
16:00 +26°C° 0.1 mm 3 mps 744 mmHg 64%
17:00 +26°C° 0.1 mm 3 mps 744 mmHg 67%
18:00 +24°C° 0.1 mm 3 mps 744 mmHg 74%
19:00 +23°C° 0.1 mm 2 mps 744 mmHg 80%
20:00 +21°C° 0.1 mm 2 mps 744 mmHg 87%
21:00 +20°C° 0 mm 2 mps 744 mmHg 88%
22:00 +19°C° 0 mm 2 mps 744 mmHg 89%
23:00 +18°C° 0 mm 2 mps 744 mmHg 90%

Tomorrow, 6 July, Monday

Time Temperature Precipitation Wind Pressure Humidity
00:00 +18°C° 0 mm 2 mps 744 mmHg 91%
01:00 +18°C° 0 mm 2 mps 744 mmHg 92%
02:00 +18°C° 0 mm 3 mps 744 mmHg 94%
03:00 +18°C° 0 mm 3 mps 744 mmHg 94%
04:00 +18°C° 0 mm 2 mps 743 mmHg 94%
05:00 +18°C° 0 mm 2 mps 743 mmHg 94%
06:00 +20°C° 0 mm 3 mps 743 mmHg 89%
07:00 +22°C° 0 mm 3 mps 743 mmHg 83%
08:00 +24°C° 0 mm 3 mps 743 mmHg 78%
09:00 +25°C° 0.3 mm 4 mps 743 mmHg 76%
10:00 +26°C° 0.3 mm 4 mps 743 mmHg 73%
11:00 +27°C° 0.3 mm 4 mps 743 mmHg 71%
12:00 +27°C° 0.6 mm 4 mps 742 mmHg 72%
13:00 +27°C° 0.6 mm 4 mps 742 mmHg 73%
14:00 +27°C° 0.6 mm 4 mps 742 mmHg 74%
15:00 +27°C° 0.9 mm 4 mps 741 mmHg 77%
16:00 +26°C° 0.9 mm 3 mps 741 mmHg 81%
17:00 +26°C° 0.9 mm 3 mps 741 mmHg 84%
18:00 +25°C° 0.5 mm 2 mps 741 mmHg 85%
19:00 +24°C° 0.5 mm 2 mps 741 mmHg 87%
20:00 +23°C° 0.5 mm 1 mps 741 mmHg 88%
21:00 +22°C° 0.6 mm 1 mps 741 mmHg 90%
22:00 +21°C° 0.6 mm 1 mps 741 mmHg 91%
23:00 +21°C° 0.6 mm 1 mps 741 mmHg 93%

Day after tomorrow, 7 July, Tuesday

Time Temperature Precipitation Wind Pressure Humidity
00:00 +20°C° 0.6 mm 1 mps 741 mmHg 94%
01:00 +20°C° 0.6 mm 1 mps 741 mmHg 95%
02:00 +19°C° 0.6 mm 2 mps 741 mmHg 97%
03:00 +18°C° 1.1 mm 2 mps 741 mmHg 97%
04:00 +18°C° 1.1 mm 3 mps 741 mmHg 97%
05:00 +18°C° 1.1 mm 4 mps 741 mmHg 97%
06:00 +18°C° 1.7 mm 3 mps 741 mmHg 97%
07:00 +17°C° 1.7 mm 3 mps 742 mmHg 97%
08:00 +17°C° 1.7 mm 3 mps 742 mmHg 96%
09:00 +18°C° 0.2 mm 3 mps 742 mmHg 94%
10:00 +18°C° 0.2 mm 3 mps 742 mmHg 92%
11:00 +18°C° 0.2 mm 4 mps 742 mmHg 90%
12:00 +20°C° 0 mm 4 mps 742 mmHg 83%
13:00 +21°C° 0 mm 4 mps 742 mmHg 76%
14:00 +22°C° 0 mm 4 mps 742 mmHg 69%
15:00 +22°C° 0 mm 4 mps 742 mmHg 69%
16:00 +22°C° 0 mm 4 mps 742 mmHg 68%
17:00 +22°C° 0 mm 4 mps 743 mmHg 68%
18:00 +20°C° 0 mm 3 mps 743 mmHg 72%
19:00 +19°C° 0 mm 3 mps 743 mmHg 77%
20:00 +18°C° 0 mm 3 mps 743 mmHg 82%
21:00 +17°C° 0 mm 3 mps 744 mmHg 81%
22:00 +17°C° 0 mm 3 mps 744 mmHg 80%
23:00 +16°C° 0 mm 3 mps 744 mmHg 80%

8 July, Wednesday

Time Temperature Precipitation Wind Pressure Humidity
00:00 +16°C° 0 mm 3 mps 744 mmHg 78%
01:00 +15°C° 0 mm 4 mps 744 mmHg 75%
02:00 +15°C° 0 mm 4 mps 744 mmHg 73%
03:00 +14°C° 0 mm 4 mps 744 mmHg 74%
04:00 +14°C° 0 mm 4 mps 745 mmHg 75%
05:00 +13°C° 0 mm 4 mps 745 mmHg 77%
06:00 +14°C° 0 mm 4 mps 745 mmHg 75%
07:00 +14°C° 0 mm 4 mps 745 mmHg 73%
08:00 +15°C° 0 mm 4 mps 745 mmHg 71%
09:00 +17°C° 0 mm 4 mps 745 mmHg 68%
10:00 +18°C° 0 mm 3 mps 745 mmHg 64%
11:00 +19°C° 0 mm 3 mps 746 mmHg 60%
12:00 +20°C° 0 mm 3 mps 745 mmHg 58%
13:00 +21°C° 0 mm 3 mps 745 mmHg 57%
14:00 +21°C° 0 mm 3 mps 745 mmHg 55%
15:00 +21°C° 0 mm 3 mps 745 mmHg 57%
16:00 +21°C° 0 mm 3 mps 745 mmHg 59%
17:00 +21°C° 0 mm 3 mps 745 mmHg 60%
18:00 +19°C° 0 mm 3 mps 745 mmHg 67%
19:00 +18°C° 0 mm 3 mps 745 mmHg 74%
20:00 +16°C° 0 mm 2 mps 745 mmHg 81%
21:00 +15°C° 0 mm 2 mps 746 mmHg 83%
22:00 +15°C° 0 mm 2 mps 746 mmHg 85%
23:00 +14°C° 0 mm 2 mps 746 mmHg 87%

9 July, Thursday

Time Temperature Precipitation Wind Pressure Humidity
00:00 +14°C° 0 mm 2 mps 746 mmHg 87%
01:00 +13°C° 0 mm 2 mps 746 mmHg 86%
02:00 +13°C° 0 mm 2 mps 746 mmHg 86%
03:00 +13°C° 0 mm 2 mps 746 mmHg 86%
04:00 +13°C° 0 mm 2 mps 746 mmHg 85%
05:00 +13°C° 0 mm 1 mps 746 mmHg 85%
06:00 +14°C° 0 mm 2 mps 747 mmHg 81%
07:00 +16°C° 0 mm 2 mps 747 mmHg 76%
08:00 +17°C° 0 mm 2 mps 747 mmHg 72%
09:00 +18°C° 0.1 mm 2 mps 747 mmHg 69%
10:00 +19°C° 0.1 mm 2 mps 747 mmHg 66%
11:00 +20°C° 0.1 mm 3 mps 747 mmHg 63%
12:00 +20°C° 0.3 mm 3 mps 747 mmHg 63%
13:00 +20°C° 0.3 mm 3 mps 747 mmHg 64%
14:00 +21°C° 0.3 mm 3 mps 747 mmHg 64%
15:00 +20°C° 0.5 mm 3 mps 747 mmHg 68%
16:00 +20°C° 0.5 mm 3 mps 747 mmHg 71%
17:00 +19°C° 0.5 mm 3 mps 747 mmHg 75%
18:00 +18°C° 0.2 mm 3 mps 747 mmHg 79%
19:00 +17°C° 0.2 mm 2 mps 747 mmHg 83%
20:00 +16°C° 0.2 mm 2 mps 747 mmHg 88%
21:00 +15°C° 0 mm 2 mps 747 mmHg 89%
22:00 +14°C° 0 mm 2 mps 747 mmHg 90%
23:00 +13°C° 0 mm 2 mps 748 mmHg 91%

10 July, Friday

Time Temperature Precipitation Wind Pressure Humidity
00:00 +12°C° 0 mm 2 mps 748 mmHg 92%
01:00 +12°C° 0 mm 1 mps 748 mmHg 92%
02:00 +12°C° 0 mm 1 mps 748 mmHg 93%
03:00 +12°C° 0 mm 1 mps 749 mmHg 93%
04:00 +12°C° 0 mm 1 mps 749 mmHg 92%
05:00 +12°C° 0 mm 1 mps 749 mmHg 92%
06:00 +14°C° 0 mm 1 mps 749 mmHg 86%
07:00 +16°C° 0 mm 1 mps 750 mmHg 81%
08:00 +18°C° 0 mm 1 mps 750 mmHg 75%
09:00 +20°C° 0 mm 1 mps 750 mmHg 68%
10:00 +21°C° 0 mm 1 mps 750 mmHg 61%
11:00 +23°C° 0 mm 2 mps 751 mmHg 54%
12:00 +23°C° 0 mm 1 mps 751 mmHg 52%
13:00 +23°C° 0 mm 1 mps 751 mmHg 51%
14:00 +24°C° 0 mm 1 mps 750 mmHg 49%
15:00 +24°C° 0 mm 1 mps 750 mmHg 50%
16:00 +24°C° 0 mm 1 mps 750 mmHg 52%
17:00 +23°C° 0 mm 1 mps 751 mmHg 53%
18:00 +22°C° 0 mm 1 mps 751 mmHg 59%
19:00 +20°C° 0 mm 1 mps 751 mmHg 65%
20:00 +18°C° 0 mm 1 mps 751 mmHg 71%
21:00 +16°C° 0 mm 1 mps 751 mmHg 73%
22:00 +16°C° 0 mm 1 mps 751 mmHg 76%
23:00 +15°C° 0 mm 1 mps 751 mmHg 78%
Show more